Lapse_Rate
5.3 5.1 5.0 5.0 5.0 5.0 5.1 5.0 5.1 5.5 5.4 5.3 5.4 5.4 5.1 5.1 4.9 5.0 5.3 5.3 5.3 5.4 5.7 5.7 5.9 5.9 5.8 5.9 6.3 4.9 5.7 5.8 5.6 5.5 5.5 5.3 5.1 5.0 5.0 5.1 5.0 4.5 4.7 5.0 4.7 4.8 5.1
5.7 5.6 5.3 5.1 5.0 5.2 5.1 4.9 4.9 5.3 5.4 5.2 5.2 5.1 5.2 5.0 4.9 4.8 5.0 4.8 4.9 5.0 4.9 4.9 5.2 5.4 5.7 6.0 5.7 5.8 5.8 5.8 5.6 5.4 5.3 5.3 5.1 4.8 4.6 4.9 4.9 4.9 4.6 4.6 4.8 4.7 5.2
5.6 5.6 5.6 5.4 5.1 5.1 4.9 5.0 5.1 4.9 5.1 5.1 5.1 5.2 4.9 5.2 5.1 5.0 5.1 5.1 5.0 4.5 4.5 4.7 5.1 5.2 5.3 6.2 4.9 5.7 5.8 5.6 5.5 5.3 5.3 5.1 4.8 4.6 4.3 4.9 5.0 4.9 4.9 4.8 5.1 5.6 5.1
5.5 5.5 5.5 5.7 5.5 5.2 5.2 5.1 5.2 5.2 5.0 5.0 5.2 5.2 5.2 5.3 5.3 5.3 5.1 5.1 4.7 4.9 4.8 4.3 4.4 4.8 5.4 5.3 5.3 5.4 5.4 5.7 5.2 5.1 5.4 4.9 4.8 4.5 4.4 4.9 5.0 4.8 4.7 4.9 5.5 6.0 6.1
5.3 5.2 5.3 5.3 5.7 5.8 5.2 5.0 4.9 4.9 5.0 5.2 5.0 5.3 5.5 5.2 5.4 5.3 5.5 5.2 4.8 4.9 5.1 5.2 5.2 5.1 5.6 5.5 5.6 5.4 5.7 5.7 5.7 5.3 5.5 5.0 4.6 4.4 4.8 5.0 4.8 4.7 4.7 4.9 5.2 6.4 5.9
5.2 5.2 5.2 5.3 5.2 5.4 5.6 5.5 5.3 5.0 5.0 4.9 4.7 5.4 5.9 5.7 5.7 5.2 5.9 5.2 4.9 4.8 4.7 5.4 5.2 5.2 5.6 5.4 5.7 5.5 5.5 5.2 5.3 5.3 5.3 5.2 4.4 4.4 5.6 5.3 4.5 5.2 5.0 4.8 5.1 6.1 6.4
5.2 5.4 5.3 5.4 5.5 5.3 5.3 5.1 5.2 5.2 5.2 5.4 5.4 5.8 5.9 5.8 5.9 5.8 5.7 5.3 5.3 5.2 5.5 5.7 5.3 5.6 5.7 5.5 5.5 5.1 4.9 4.8 5.0 5.1 5.1 4.8 4.4 5.7 6.0 5.5 5.2 5.1 5.1 5.2 5.8 6.4 6.1
5.4 5.6 6.0 5.8 5.7 5.5 5.3 5.1 5.2 5.3 5.9 5.9 5.9 6.1 6.3 6.1 5.9 5.7 5.7 5.7 5.4 5.6 5.3 5.6 5.5 5.7 5.7 5.2 5.4 5.1 4.8 4.6 4.5 5.0 4.7 4.7 4.8 6.5 5.6 5.4 5.2 5.2 5.5 5.8 6.0 6.7 6.3
6.1 6.2 6.4 6.5 6.2 6.1 6.1 6.2 5.9 6.4 6.4 6.2 6.5 6.5 6.5 5.9 6.3 6.1 5.9 5.6 5.6 5.5 5.1 5.9 5.8 5.8 6.3 4.9 5.7 5.4 5.3 4.8 5.0 5.3 4.9 4.6 6.0 5.8 5.6 5.8 5.7 6.2 5.9 6.2 6.1 6.8 6.7
7.3 7.3 7.2 7.3 7.4 7.2 7.2 6.9 6.8 6.7 6.6 6.5 6.3 6.5 6.3 6.0 6.2 6.2 6.0 5.7 5.6 5.0 5.4 6.0 6.5 6.5 6.5 5.8 5.8 5.8 5.6 5.3 5.3 5.6 5.4 5.3 6.3 6.2 6.2 6.2 6.6 6.1 6.8 6.5 6.6 6.7 6.3
7.7 8.0 8.0 7.9 7.9 7.5 6.9 6.9 6.8 6.5 6.5 6.7 6.4 6.2 6.3 6.3 6.3 6.4 5.7 5.5 5.7 5.4 5.6 6.4 6.1 5.8 6.1 6.3 5.8 6.3 6.0 5.6 5.7 5.9 5.7 6.1 6.4 6.4 6.5 6.7 6.7 6.4 6.7 6.7 6.8 6.8 6.7
7.7 8.2 8.3 7.8 7.4 6.7 6.4 6.6 6.5 6.5 6.5 6.7 6.5 6.3 6.4 6.3 6.3 6.2 5.3 5.4 5.7 5.9 5.5 6.2 5.9 5.8 5.8 6.1 6.2 6.1 6.0 6.0 6.0 6.1 6.0 6.0 6.1 6.4 6.6 6.8 6.8 6.9 6.9 7.1 7.1 7.1 6.4
7.8 8.0 7.7 7.2 7.2 6.9 6.8 6.6 6.8 6.7 6.4 6.9 7.0 6.7 6.3 6.4 6.0 5.6 4.5 5.4 5.8 5.2 6.7 6.2 6.2 6.3 6.4 6.3 6.2 6.2 6.3 6.2 6.0 6.1 6.3 6.4 6.7 6.8 6.7 6.8 7.1 7.1 7.1 6.5 6.5 6.1 6.5
7.9 8.0 7.1 7.0 6.8 7.1 6.8 6.4 6.8 6.5 6.9 6.7 6.6 6.4 6.5 6.0 5.4 5.0 5.4 5.4 5.2 6.1 6.3 6.1 6.5 6.8 6.4 6.3 6.3 6.5 6.5 6.6 6.5 6.6 6.2 6.4 6.5 7.1 6.5 6.2 6.3 7.3 7.1 7.2 6.9 6.2 6.2
5.7 6.3 6.8 6.9 7.2 7.1 6.7 6.6 6.7 6.7 6.2 6.7 6.5 6.1 5.9 5.1 4.7 5.4 5.4 4.8 6.3 5.9 6.2 6.3 6.7 6.7 6.4 6.6 6.8 6.8 6.8 6.6 6.2 6.2 6.4 6.1 6.0 6.4 6.4 6.5 6.5 6.5 7.0 7.1 7.4 7.2 7.0
6.0 5.9 5.9 6.0 5.7 5.5 5.6 5.6 5.6 6.1 6.0 6.0 5.6 5.5 4.2 4.2 5.0 5.0 5.3 5.9 6.0 6.4 6.6 6.5 6.9 6.9 6.6 6.7 7.1 7.3 7.0 6.0 5.9 6.0 6.0 5.8 5.6 5.8 6.3 7.0 7.1 6.6 6.3 6.8 7.1 6.9 7.1
6.0 6.2 6.3 6.2 6.3 6.1 6.1 5.8 5.3 5.6 5.2 5.0 4.8 4.0 4.0 4.9 5.2 5.1 4.7 5.6 6.2 6.0 6.4 7.1 7.2 6.9 7.0 7.0 7.1 6.9 6.4 5.9 5.7 5.5 5.6 5.7 5.6 5.4 5.4 5.9 5.9 6.3 5.9 6.5 6.4 6.9 7.5
5.5 5.6 5.6 5.6 5.7 5.7 5.7 5.6 5.5 5.2 4.9 4.7 4.2 4.4 5.1 5.2 5.1 4.9 5.4 5.7 6.1 6.8 6.9 6.8 6.8 7.1 7.0 6.7 6.6 6.6 6.2 6.1 5.5 5.4 5.5 5.6 5.5 5.0 5.5 6.3 5.8 6.3 5.9 6.2 6.3 6.8 6.6
5.2 5.3 5.3 5.4 5.5 5.4 5.2 5.5 5.3 5.0 4.7 4.5 4.9 5.4 5.2 5.6 5.6 6.1 6.1 6.4 6.8 7.5 7.6 7.4 6.9 6.6 6.4 6.4 6.3 5.9 5.9 5.7 5.5 5.6 5.7 5.5 5.3 5.2 6.0 6.4 6.6 6.6 6.6 6.3 6.2 6.4 6.3
5.1 5.1 5.3 5.3 5.4 5.2 5.0 5.0 4.8 4.8 4.9 5.1 5.4 5.4 5.6 6.0 6.5 6.4 7.2 6.9 7.0 7.1 7.3 6.8 6.5 6.2 6.1 5.9 6.0 5.8 5.7 5.3 5.6 5.6 5.7 5.6 5.7 6.0 6.4 6.8 6.4 6.6 6.7 6.6 6.6 6.4 6.3
4.9 4.8 4.9 4.9 5.0 5.0 4.4 4.5 4.9 4.9 4.9 5.3 5.8 6.2 6.5 6.4 6.6 6.7 7.5 7.8 7.5 7.2 6.8 6.4 6.0 5.9 5.9 5.8 5.6 5.5 5.7 5.7 5.7 5.8 6.0 6.0 6.1 6.3 6.5 6.4 6.6 6.6 6.7 7.6 7.4 6.9 6.0
4.9 4.7 4.6 4.9 4.7 4.6 4.2 4.4 4.6 5.0 5.4 5.7 6.4 6.6 7.0 7.3 7.0 7.6 7.8 7.1 7.2 6.8 6.5 6.0 5.8 5.7 5.6 5.5 5.5 5.5 5.5 5.8 6.0 6.1 6.0 6.1 6.1 6.1 6.2 6.3 6.7 6.4 7.2 7.7 7.6 7.2 6.4
5.0 4.8 4.6 4.8 4.3 4.5 4.8 5.0 5.1 5.2 5.9 6.6 7.2 7.7 7.5 7.5 7.3 7.3 7.3 7.0 6.4 6.2 6.1 6.0 6.0 5.9 5.6 5.5 5.5 5.6 5.7 5.7 5.9 6.1 6.4 6.3 6.1 5.9 5.8 6.5 6.6 6.6 7.4 7.7 7.6 7.2 7.0
5.1 4.7 4.6 4.7 4.7 4.6 5.0 5.6 6.0 6.5 6.8 7.1 7.2 7.9 8.1 7.7 7.5 7.4 7.0 6.7 6.2 5.9 6.1 6.0 5.9 5.7 5.7 5.5 5.4 5.3 5.5 5.9 6.3 6.7 6.4 6.1 6.1 6.1 6.2 6.4 6.2 6.9 7.1 7.5 7.1 6.7 6.8
4.9 4.6 5.1 5.0 5.3 5.7 6.1 6.3 6.5 6.6 7.2 7.6 7.9 7.7 7.8 7.5 7.2 6.8 6.5 6.4 6.3 6.2 6.1 5.9 5.8 5.6 5.4 5.4 5.2 5.4 5.9 6.4 6.8 6.9 7.0 7.0 6.3 6.2 6.3 6.5 6.6 6.7 6.3 6.6 6.5 6.1 6.0
5.1 5.2 5.0 5.7 6.1 6.3 6.6 6.6 6.9 7.3 7.6 8.1 7.7 7.5 7.9 7.6 6.8 6.6 6.4 6.2 6.1 6.2 6.0 5.8 5.6 5.4 5.3 5.3 5.3 5.6 6.1 6.7 7.0 7.0 7.2 7.1 6.3 6.2 6.5 6.4 6.8 6.6 6.4 6.4 6.1 5.6 5.7
5.1 5.2 5.9 6.1 6.3 6.7 6.9 7.2 7.4 7.5 7.9 7.9 7.5 7.7 7.6 7.6 6.8 6.4 6.4 6.4 6.4 6.3 6.1 5.9 5.8 5.6 5.3 5.9 6.6 6.7 6.8 6.6 6.7 6.9 6.7 6.1 5.7 5.7 5.6 5.7 6.3 6.3 6.2 6.2 6.1 5.5 5.8
5.2 5.9 6.1 6.5 7.1 7.3 7.3 7.4 7.5 7.9 8.0 7.8 7.7 7.4 7.2 7.2 6.8 6.5 6.5 6.5 6.5 6.3 6.3 6.3 6.1 6.2 6.9 7.1 6.9 6.5 6.3 6.4 6.6 6.8 6.8 6.6 6.2 6.0 5.6 5.8 6.3 5.8 6.3 5.9 5.5 5.5 5.8
5.9 6.4 6.8 7.2 7.1 7.2 7.5 7.6 8.0 8.0 7.8 7.8 7.7 7.2 7.1 7.0 6.7 6.5 6.5 6.5 6.5 6.5 6.5 6.5 6.8 7.2 7.3 7.3 7.0 6.7 6.4 6.5 6.6 6.5 6.5 6.5 6.1 6.3 6.1 5.8 5.8 5.8 5.5 5.4 5.4 5.7 5.7
Wind_Speed
31 33 34 34 34 33 33 32 31 29 26 23 21 18 16 15 14 12 10 11 14 13 15 16 16 14 6 2 11 5 3 7 7 6 6 5 5 5 4 4 2 6 7 9 9 11 10
32 33 35 35 36 35 35 35 33 31 28 26 21 17 14 14 15 13 10 10 13 14 12 14 13 9 1 8 3 7 7 5 4 4 4 6 5 4 5 4 4 4 5 8 6 9 7
33 35 36 36 36 37 38 37 36 33 29 25 21 18 15 14 15 13 11 12 13 14 14 10 9 4 6 17 5 7 2 3 5 4 5 5 4 2 2 6 4 5 7 5 5 6 7
33 36 38 39 38 39 38 36 34 33 30 27 22 19 16 13 13 10 12 13 15 14 14 11 3 3 8 6 10 9 3 6 7 8 9 4 6 4 4 5 7 4 2 3 3 2 5
35 36 39 40 38 38 37 35 34 32 30 28 25 19 15 14 11 9 12 14 17 17 10 5 1 3 10 12 4 10 9 7 3 4 6 7 3 5 2 2 4 2 6 5 6 4 6
38 37 39 38 38 32 34 35 33 32 32 29 25 21 16 12 11 8 10 15 14 4 2 7 3 2 7 2 3 4 8 7 5 3 1 4 3 2 2 3 6 5 4 4 4 5 2
42 39 38 38 36 35 35 37 36 35 32 30 26 22 18 13 10 4 3 3 1 1 4 10 10 5 4 5 4 3 2 4 2 4 3 1 3 9 9 7 4 3 5 10 6 10 4
34 32 33 35 34 31 34 35 34 33 33 29 26 22 18 13 9 2 3 3 4 2 6 17 14 13 11 4 5 7 7 6 4 6 3 2 7 9 7 5 6 7 8 10 8 12 5
29 26 27 29 31 30 33 35 34 35 33 30 27 24 18 12 4 1 4 5 2 4 3 6 8 10 9 10 7 7 10 6 4 5 6 6 7 2 5 6 6 8 5 8 11 9 6
25 20 21 25 27 28 29 32 36 35 32 29 26 21 15 8 3 3 3 7 4 4 2 5 6 7 7 6 5 8 8 7 4 9 7 6 8 8 7 7 7 11 7 14 14 6 7
25 18 19 22 22 21 26 33 34 33 31 30 24 20 15 8 2 3 1 4 4 3 2 3 5 5 9 9 2 4 5 3 6 6 6 7 3 4 5 6 6 8 9 10 11 4 4
24 18 17 19 19 24 30 32 32 31 30 27 23 17 14 4 2 4 5 4 3 3 7 6 5 6 6 4 2 2 4 2 2 2 2 6 2 3 6 4 6 8 4 4 3 2 4
29 5 17 17 18 26 31 33 32 30 29 26 21 17 9 6 3 2 4 3 3 5 3 5 5 8 6 4 2 4 3 4 0 1 2 4 4 2 4 4 5 7 2 2 3 1 8
31 33 31 19 26 32 32 31 31 31 27 24 18 11 3 4 1 2 3 2 7 8 2 1 4 6 4 2 2 2 5 3 7 3 2 2 3 4 7 5 4 6 4 4 4 3 4
22 27 31 34 33 31 33 32 29 28 23 20 15 2 2 3 7 2 2 4 3 2 2 2 3 4 2 3 4 2 3 3 2 3 2 2 3 3 6 1 0 4 2 2 4 1 3
21 25 26 28 28 29 27 25 24 23 20 16 4 3 1 2 11 2 2 4 2 4 2 1 2 3 3 1 3 3 3 3 3 5 2 1 4 2 6 7 4 5 5 4 2 3 6
15 20 23 24 23 22 22 22 21 20 18 12 3 3 3 12 3 1 3 3 2 1 2 3 2 3 3 3 3 2 3 2 2 2 5 1 1 1 4 1 4 5 2 3 2 4 4
20 20 21 21 21 20 20 19 18 17 16 6 3 3 3 4 3 2 3 4 5 3 5 3 3 4 3 3 3 2 3 2 2 2 3 1 2 3 4 9 7 5 3 2 2 3 3
18 19 19 18 15 18 19 17 16 16 14 4 4 3 1 3 3 3 3 3 4 3 4 2 2 3 3 3 4 2 3 3 3 2 3 2 1 3 5 4 5 4 3 2 3 5 5
20 19 19 18 16 14 14 13 12 10 8 3 3 3 1 2 2 4 4 2 4 4 4 4 4 5 3 3 3 3 2 3 2 2 5 4 3 5 5 3 2 5 9 11 6 3 4
20 17 18 17 16 14 11 10 8 7 4 2 1 2 3 4 3 4 3 2 5 3 3 7 4 6 3 2 2 2 2 4 3 4 3 4 4 4 6 7 7 14 17 17 12 13 7
17 16 16 17 15 13 10 9 6 5 5 1 3 3 2 2 2 7 4 1 6 3 3 3 5 4 5 2 1 2 2 3 4 4 4 1 2 4 6 8 13 16 20 19 15 14 15
15 15 16 16 14 12 10 6 3 2 7 2 1 1 3 3 3 4 1 4 4 4 4 4 3 2 2 1 3 6 7 6 6 6 6 6 4 2 6 5 10 14 11 18 8 5 12
16 17 15 15 13 11 8 5 4 5 5 3 1 2 4 1 4 4 7 6 5 2 5 3 6 3 1 4 3 5 6 10 12 14 11 8 5 3 4 2 5 4 16 7 15 6 8
17 17 16 14 13 11 8 6 8 7 7 3 1 2 3 2 5 7 8 8 6 6 4 4 4 3 4 4 3 5 4 3 4 9 13 15 7 2 3 3 8 8 2 5 3 6 8
16 16 15 15 13 11 9 8 11 10 5 3 3 0 3 5 3 2 5 2 3 2 3 2 3 3 5 3 3 1 3 3 4 1 6 10 7 4 2 3 3 4 11 7 7 3 8
14 13 13 15 13 11 10 10 12 14 12 4 3 3 4 4 2 2 4 4 4 3 3 2 3 5 4 2 1 2 3 3 3 4 5 6 3 11 6 3 5 12 16 7 1 3 8
15 13 15 14 11 10 11 11 11 14 13 4 0 5 3 3 2 4 3 4 3 3 3 2 4 3 3 3 1 2 2 3 3 3 2 3 4 4 5 4 4 18 5 5 6 8 9
14 14 16 14 13 12 11 11 13 15 12 5 3 3 3 4 3 1 1 3 4 6 5 2 4 2 2 1 1 1 2 2 4 3 7 3 4 2 4 3 4 7 9 9 7 9 9
Wind_Direction
256 236 233 231 226 224 222 221 220 221 223 227 224 225 233 243 252 262 281 301 307 311 320 325 327 331 345 288 250 260 168 126 129 156 178 179 156 190 212 210 244 218 253 256 247 260 263
270 258 242 232 229 225 223 221 218 216 214 217 220 217 221 243 257 266 276 293 299 303 313 320 320 325 313 266 254 281 220 156 173 189 199 188 198 192 269 253 190 248 245 276 264 255 254
268 264 252 241 232 228 224 221 218 213 209 208 211 214 211 229 251 263 277 286 288 300 306 305 308 279 257 246 303 330 280 220 175 203 208 202 197 187 352 307 266 261 294 292 243 226 235
273 261 255 248 241 231 226 221 218 210 203 196 201 206 209 216 235 259 275 285 292 292 294 296 257 199 256 255 272 272 201 276 240 226 231 235 175 203 185 264 338 335 291 300 295 20 281
277 263 254 251 241 234 222 217 215 205 196 191 192 201 203 209 224 244 280 293 288 285 272 259 251 202 260 301 240 251 175 209 216 213 228 247 172 206 238 150 356 319 259 256 299 271 258
277 266 253 244 243 226 223 214 207 199 194 189 183 190 198 204 222 253 291 290 283 294 205 150 240 256 262 253 280 269 175 194 213 193 52 130 79 207 58 122 235 238 262 254 240 291 298
279 268 251 240 236 234 221 212 201 195 189 180 178 188 192 203 223 246 7 353 348 302 253 202 189 219 280 300 282 286 212 146 176 93 169 216 145 217 222 214 206 242 269 270 273 265 288
281 265 250 235 232 222 209 207 203 186 180 173 175 181 185 195 214 193 117 219 234 144 290 229 237 238 270 336 305 273 144 170 160 214 152 37 237 231 228 209 216 239 258 275 272 255 216
278 259 245 229 227 216 206 201 184 178 174 170 172 169 166 198 179 183 203 227 193 103 271 276 209 229 230 170 216 261 154 156 173 183 198 184 237 213 208 245 241 245 223 258 261 290 253
295 253 227 226 223 215 201 190 176 171 166 162 158 161 155 155 102 151 212 234 151 105 330 255 212 241 174 186 234 219 201 154 196 198 198 226 253 236 258 247 225 263 237 253 267 270 263
306 243 225 225 226 212 204 176 166 161 157 153 151 152 152 161 93 171 77 123 134 55 260 165 157 161 142 160 196 222 187 160 194 194 127 235 246 222 215 219 218 255 230 260 267 245 316
316 231 213 211 204 176 161 156 152 148 147 143 142 146 143 135 118 243 352 76 53 91 237 195 146 166 135 215 279 106 148 71 156 192 187 230 272 236 219 255 221 264 268 245 33 89 270
19 253 222 207 180 157 142 138 137 138 138 137 141 147 140 135 188 101 149 91 150 209 171 149 171 165 174 142 161 148 139 29 159 6 15 327 263 66 14 36 359 14 65 322 310 331 250
42 51 64 85 121 126 123 124 127 127 127 126 122 126 138 222 72 50 107 133 216 174 51 60 99 99 125 35 48 51 103 125 20 54 144 135 303 13 340 58 342 298 177 187 264 215 261
91 86 76 77 82 85 101 110 113 112 115 116 113 83 103 252 208 81 122 207 237 21 24 73 74 129 93 31 99 78 70 98 81 12 140 35 245 287 102 176 133 302 344 252 273 299 288
93 99 101 105 108 112 112 111 114 113 118 121 105 116 184 234 149 112 205 253 211 19 344 44 122 4 121 70 80 75 92 349 112 25 15 102 294 336 349 358 9 80 284 349 12 266 240
111 106 107 109 113 115 118 123 129 128 130 129 85 117 175 150 101 125 206 257 94 17 117 62 92 91 93 118 93 75 76 332 63 68 67 50 158 305 44 79 299 340 312 292 181 257 276
116 116 117 120 127 131 134 132 127 134 145 120 131 110 176 115 155 208 208 180 152 76 61 79 71 81 98 93 99 105 117 85 66 153 128 230 159 289 250 263 270 220 57 346 151 275 275
131 128 125 126 133 141 133 136 147 158 164 134 125 119 37 126 175 211 227 86 55 77 37 76 89 65 73 109 107 93 83 115 39 85 146 168 28 331 321 28 22 54 327 332 264 255 234
144 144 138 131 139 134 131 138 147 159 167 120 120 108 105 157 243 169 138 117 119 38 53 81 63 68 80 90 50 141 115 80 37 128 127 108 175 195 244 296 323 291 291 285 247 238 279
146 143 139 138 137 133 130 132 142 152 167 132 184 170 171 190 233 145 123 108 105 106 68 33 46 70 70 89 54 89 41 358 334 191 78 124 204 218 257 279 275 275 273 272 252 242 234
148 147 143 139 137 135 137 134 144 178 170 138 123 136 51 102 95 96 25 41 116 91 97 60 95 113 75 116 168 235 164 187 229 187 142 125 240 187 251 259 258 265 263 260 253 255 243
148 147 147 137 132 133 133 133 101 125 169 113 324 282 100 358 80 81 221 140 115 95 34 87 116 89 32 269 203 222 218 207 219 195 193 169 164 110 268 239 297 278 274 260 209 236 241
151 149 148 135 128 121 114 99 46 58 148 130 126 102 85 27 103 124 123 101 114 98 120 39 61 89 351 331 305 277 247 236 228 231 202 205 149 163 279 343 254 315 338 53 108 58 45
152 138 137 129 122 111 98 76 42 56 72 85 136 108 104 94 116 102 102 109 64 47 63 81 27 7 331 26 339 320 317 296 239 226 219 210 185 221 198 209 291 297 3 330 19 63 24
133 136 137 128 118 103 86 64 44 49 105 91 59 89 97 111 348 10 95 90 119 87 30 32 359 333 61 76 64 300 301 322 300 204 29 163 172 156 195 234 274 46 336 308 273 86 33
141 138 139 132 121 108 84 65 49 51 58 88 45 2 87 100 10 69 104 123 112 92 116 313 350 15 42 63 88 210 272 275 279 292 152 136 162 214 222 268 274 358 326 335 236 73 66
143 137 138 123 115 108 88 66 52 49 48 70 148 6 106 98 359 34 92 116 75 93 132 250 45 354 36 64 219 288 272 295 307 280 280 133 193 180 203 207 281 360 17 26 92 88 96
134 136 131 121 111 103 90 73 56 46 50 72 52 346 23 83 151 345 8 119 138 173 124 54 153 143 168 103 302 275 281 283 276 356 349 59 352 24 25 71 46 15 39 44 73 90 89